This is the latest recevied weather packets stored in our database for station/object SA7AHC. If no packets are shown the sender has not sent any weather packets the latest 10 day(s).
| Time | Temp. | Humidity | Pressure | Rain* | Wind** | Luminosity | Snow |
|---|---|---|---|---|---|---|---|
| 1788175470 | 17.22° C | 80% | 1010 hPa | 0 mm | - | 408 W/m² | - |
| 1788174870 | 17.22° C | 79% | 1010 hPa | 0 mm | - | 357 W/m² | - |
| 1788174269 | 16.67° C | 81% | 1010 hPa | 0 mm | - | 350 W/m² | - |
| 1788173663 | 16.67° C | 82% | 1010.1 hPa | 0 mm | - | 200 W/m² | - |
| 1788173063 | 16.67° C | 81% | 1010.1 hPa | 0 mm | - | 239 W/m² | - |
| 1788172464 | 16.67° C | 80% | 1010.2 hPa | 0 mm | - | 297 W/m² | - |
| 1788171865 | 16.67° C | 81% | 1010.2 hPa | 0 mm | - | 299 W/m² | - |
| 1788171263 | 16.67° C | 82% | 1010.2 hPa | 0 mm | - | 246 W/m² | - |
| 1788170661 | 16.11° C | 84% | 1010.6 hPa | 0 mm | - | 359 W/m² | - |
| 1788170059 | 15.56° C | 85% | 1010.5 hPa | 0 mm | - | 139 W/m² | - |
| 1788169460 | 15.56° C | 85% | 1010.6 hPa | 0 mm | - | 84 W/m² | - |
| 1788168859 | 15.56° C | 86% | 1010.6 hPa | 0 mm | - | 262 W/m² | - |
| 1788168261 | 15.56° C | 87% | 1010.3 hPa | 0 mm | - | 241 W/m² | - |
| 1788167659 | 15.56° C | 87% | 1010.3 hPa | 0 mm | - | 142 W/m² | - |
| 1788167051 | 15.56° C | 88% | 1010.2 hPa | 0 mm | - | 323 W/m² | - |
| 1788166451 | 15° C | 89% | 1010 hPa | 0 mm | - | 225 W/m² | - |
| 1788165851 | 15° C | 91% | 1010 hPa | 0 mm | - | 118 W/m² | - |
| 1788165251 | 15° C | 92% | 1010 hPa | 0 mm | - | 292 W/m² | - |
| 1788164643 | 15° C | 91% | 1009.9 hPa | 0 mm | - | 127 W/m² | - |
| 1788164045 | 15° C | 92% | 1009.9 hPa | 0 mm | - | 130 W/m² | - |
| 1788163443 | 14.44° C | 94% | 1009.8 hPa | 0 mm | - | 262 W/m² | - |
| 1788162841 | 14.44° C | 95% | 1009.9 hPa | 0 mm | - | 267 W/m² | - |
| 1788162241 | 14.44° C | 96% | 1009.8 hPa | 0 mm | - | 204 W/m² | - |
| 1788161645 | 14.44° C | 96% | 1009.6 hPa | 0 mm | - | 214 W/m² | - |
| 1788161043 | 13.89° C | 97% | 1009.9 hPa | 0 mm | - | 221 W/m² | - |
* Rain latest hour (hover to see other rain measurements)
** Current wind speed in m/s (hover to see current wind gust speed)